Year,Month,Day,Hour,Minute,Value (Times are PST for windgust in km/hr)
2019,02,04,00,00,1.60
2019,02,04,00,01,3.20
2019,02,04,00,02,1.60
2019,02,04,00,03,6.40
2019,02,04,00,04,8.10
2019,02,04,00,05,3.20
2019,02,04,00,06,3.20
2019,02,04,00,07,4.80
2019,02,04,00,08,3.20
2019,02,04,00,09,4.80
2019,02,04,00,10,1.60
2019,02,04,00,11,3.20
2019,02,04,00,12,3.20
2019,02,04,00,13,4.80
2019,02,04,00,14,3.20
2019,02,04,00,15,3.20
2019,02,04,00,16,3.20
2019,02,04,00,17,3.20
2019,02,04,00,18,3.20
2019,02,04,00,19,3.20
2019,02,04,00,20,3.20
2019,02,04,00,21,3.20
2019,02,04,00,22,4.80
2019,02,04,00,23,3.20
2019,02,04,00,24,3.20
2019,02,04,00,25,3.20
2019,02,04,00,27,4.80
2019,02,04,00,28,4.80
2019,02,04,00,29,1.60
2019,02,04,00,31,3.20
2019,02,04,00,32,4.80
2019,02,04,00,33,3.20
2019,02,04,00,34,4.80
2019,02,04,00,35,4.80
2019,02,04,00,36,6.40
2019,02,04,00,37,3.20
2019,02,04,00,39,4.80
2019,02,04,00,40,3.20
2019,02,04,00,41,4.80
2019,02,04,00,42,4.80
2019,02,04,00,43,4.80
2019,02,04,00,44,6.40
2019,02,04,00,45,4.80
2019,02,04,00,46,3.20
2019,02,04,00,47,3.20
2019,02,04,00,48,4.80
2019,02,04,00,49,6.40
2019,02,04,00,50,6.40
2019,02,04,00,51,6.40
2019,02,04,00,52,4.80
2019,02,04,00,53,9.60
2019,02,04,00,54,8.10
2019,02,04,00,55,9.60
2019,02,04,00,56,6.40
2019,02,04,00,57,6.40
2019,02,04,00,58,6.40
2019,02,04,00,59,6.40
2019,02,04,01,00,6.40
2019,02,04,01,01,6.40
2019,02,04,01,02,8.10
2019,02,04,01,03,3.20
2019,02,04,01,04,1.60
2019,02,04,01,05,4.80
2019,02,04,01,06,6.40
2019,02,04,01,07,1.60
2019,02,04,01,08,4.80
2019,02,04,01,09,4.80
2019,02,04,01,10,3.20
2019,02,04,01,11,3.20
2019,02,04,01,12,3.20
2019,02,04,01,13,3.20
2019,02,04,01,14,3.20
2019,02,04,01,15,1.60
2019,02,04,01,16,1.60
2019,02,04,01,17,1.60
2019,02,04,01,18,3.20
2019,02,04,01,19,1.60
2019,02,04,01,20,1.60
2019,02,04,01,21,1.60
2019,02,04,01,22,3.20
2019,02,04,01,23,4.80
2019,02,04,01,24,6.40
2019,02,04,01,25,8.10
2019,02,04,01,26,6.40
2019,02,04,01,27,1.60
2019,02,04,01,28,3.20
2019,02,04,01,29,1.60
2019,02,04,01,30,6.40
2019,02,04,01,31,4.80
2019,02,04,01,33,3.20
2019,02,04,01,34,1.60
2019,02,04,01,35,3.20
2019,02,04,01,36,4.80
2019,02,04,01,37,3.20
2019,02,04,01,38,4.80
2019,02,04,01,39,3.20
2019,02,04,01,40,4.80
2019,02,04,01,41,6.40
2019,02,04,01,42,3.20
2019,02,04,01,43,4.80
2019,02,04,01,44,11.30
2019,02,04,01,45,4.80
2019,02,04,01,46,8.10
2019,02,04,01,47,8.10
2019,02,04,01,48,4.80
2019,02,04,01,49,4.80
2019,02,04,01,50,12.90
2019,02,04,01,51,8.10
2019,02,04,01,52,11.30
2019,02,04,01,53,6.40
2019,02,04,01,54,4.80
2019,02,04,01,55,4.80
2019,02,04,01,56,8.10
2019,02,04,01,57,4.80
2019,02,04,01,58,8.10
2019,02,04,01,59,6.40
2019,02,04,02,00,14.50
2019,02,04,02,01,12.90
2019,02,04,02,02,12.90
2019,02,04,02,03,16.10
2019,02,04,02,04,11.30
2019,02,04,02,05,4.80
2019,02,04,02,06,6.40
2019,02,04,02,07,4.80
2019,02,04,02,08,4.80
2019,02,04,02,09,4.80
2019,02,04,02,10,3.20
2019,02,04,02,11,3.20
2019,02,04,02,12,1.60
2019,02,04,02,13,1.60
2019,02,04,02,16,1.60
2019,02,04,02,19,1.60
2019,02,04,02,20,1.60
2019,02,04,02,21,1.60
2019,02,04,02,22,1.60
2019,02,04,02,26,1.60
2019,02,04,02,27,1.60
2019,02,04,02,28,1.60
2019,02,04,02,29,8.10
2019,02,04,02,30,6.40
2019,02,04,02,31,3.20
2019,02,04,02,32,1.60
2019,02,04,02,33,1.60
2019,02,04,02,34,1.60
2019,02,04,02,35,1.60
2019,02,04,02,36,3.20
2019,02,04,02,37,1.60
2019,02,04,02,38,1.60
2019,02,04,02,39,3.20
2019,02,04,02,40,3.20
2019,02,04,02,41,3.20
2019,02,04,02,42,1.60
2019,02,04,02,43,1.60
2019,02,04,02,44,1.60
2019,02,04,02,45,1.60
2019,02,04,02,50,3.20
2019,02,04,02,51,3.20
2019,02,04,02,52,1.60
2019,02,04,02,53,1.60
2019,02,04,02,54,1.60
2019,02,04,02,55,1.60
2019,02,04,02,56,1.60
2019,02,04,02,57,1.60
2019,02,04,02,58,1.60
2019,02,04,02,59,3.20
2019,02,04,03,00,1.60
2019,02,04,03,02,1.60
2019,02,04,03,03,1.60
2019,02,04,03,04,3.20
2019,02,04,03,05,3.20
2019,02,04,03,06,1.60
2019,02,04,03,07,1.60
2019,02,04,03,08,1.60
2019,02,04,03,14,1.60
2019,02,04,03,15,3.20
2019,02,04,03,33,3.20
2019,02,04,03,34,1.60
2019,02,04,03,35,3.20
2019,02,04,03,36,1.60
2019,02,04,03,37,4.80
2019,02,04,03,38,3.20
2019,02,04,03,39,3.20
2019,02,04,03,40,3.20
2019,02,04,03,41,1.60
2019,02,04,03,42,3.20
2019,02,04,03,43,1.60
2019,02,04,03,45,1.60
2019,02,04,03,46,3.20
2019,02,04,03,47,1.60
2019,02,04,03,51,1.60
2019,02,04,03,52,1.60
2019,02,04,03,53,1.60
2019,02,04,03,55,3.20
2019,02,04,03,56,3.20
2019,02,04,03,57,4.80
2019,02,04,03,58,4.80
2019,02,04,03,59,4.80
2019,02,04,04,00,1.60
2019,02,04,04,01,6.40
2019,02,04,04,02,3.20
2019,02,04,04,03,4.80
2019,02,04,04,04,3.20
2019,02,04,04,05,4.80
2019,02,04,04,06,4.80
2019,02,04,04,07,1.60
2019,02,04,04,08,3.20
2019,02,04,04,09,4.80
2019,02,04,04,10,4.80
2019,02,04,04,11,6.40
2019,02,04,04,12,4.80
2019,02,04,04,13,3.20
2019,02,04,04,15,6.40
2019,02,04,04,16,8.10
2019,02,04,04,17,6.40
2019,02,04,04,18,3.20
2019,02,04,04,19,4.80
2019,02,04,04,20,3.20
2019,02,04,04,21,3.20
2019,02,04,04,22,1.60
2019,02,04,04,24,1.60
2019,02,04,04,25,4.80
2019,02,04,04,26,3.20
2019,02,04,04,27,3.20
2019,02,04,04,28,3.20
2019,02,04,04,29,6.40
2019,02,04,04,30,4.80
2019,02,04,04,31,11.30
2019,02,04,04,32,6.40
2019,02,04,04,33,4.80
2019,02,04,04,34,4.80
2019,02,04,04,35,3.20
2019,02,04,04,36,3.20
2019,02,04,04,37,12.90
2019,02,04,04,38,4.80
2019,02,04,04,39,4.80
2019,02,04,04,40,6.40
2019,02,04,04,41,6.40
2019,02,04,04,42,6.40
2019,02,04,04,43,6.40
2019,02,04,04,44,6.40
2019,02,04,04,45,6.40
2019,02,04,04,46,6.40
2019,02,04,04,47,4.80
2019,02,04,04,48,6.40
2019,02,04,04,49,3.20
2019,02,04,04,50,6.40
2019,02,04,04,51,11.30
2019,02,04,04,52,11.30
2019,02,04,04,53,4.80
2019,02,04,04,54,4.80
2019,02,04,04,55,6.40
2019,02,04,04,56,3.20
2019,02,04,04,57,11.30
2019,02,04,04,58,8.10
2019,02,04,04,59,11.30
2019,02,04,05,00,8.10
2019,02,04,05,01,12.90
2019,02,04,05,02,11.30
2019,02,04,05,03,3.20
2019,02,04,05,04,3.20
2019,02,04,05,05,3.20
2019,02,04,05,06,12.90
2019,02,04,05,07,8.10
2019,02,04,05,08,8.10
2019,02,04,05,09,8.10
2019,02,04,05,10,6.40
2019,02,04,05,11,3.20
2019,02,04,05,12,1.60
2019,02,04,05,13,4.80
2019,02,04,05,14,4.80
2019,02,04,05,15,4.80
2019,02,04,05,16,11.30
2019,02,04,05,17,4.80
2019,02,04,05,18,3.20
2019,02,04,05,19,1.60
2019,02,04,05,20,3.20
2019,02,04,05,21,4.80
2019,02,04,05,22,4.80
2019,02,04,05,23,6.40
2019,02,04,05,24,3.20
2019,02,04,05,25,3.20
2019,02,04,05,26,3.20
2019,02,04,05,27,1.60
2019,02,04,05,28,3.20
2019,02,04,05,29,8.10
2019,02,04,05,30,6.40
2019,02,04,05,31,4.80
2019,02,04,05,32,3.20
2019,02,04,05,33,4.80
2019,02,04,05,34,4.80
2019,02,04,05,35,8.10
2019,02,04,05,36,6.40
2019,02,04,05,37,6.40
2019,02,04,05,38,6.40
2019,02,04,05,39,8.10
2019,02,04,05,40,6.40
2019,02,04,05,41,8.10
2019,02,04,05,42,8.10
2019,02,04,05,43,8.10
2019,02,04,05,44,6.40
2019,02,04,05,45,8.10
2019,02,04,05,46,6.40
2019,02,04,05,47,4.80
2019,02,04,05,48,3.20
2019,02,04,05,49,6.40
2019,02,04,05,50,6.40
2019,02,04,05,51,4.80
2019,02,04,05,52,4.80
2019,02,04,05,53,3.20
2019,02,04,05,54,4.80
2019,02,04,05,55,6.40
2019,02,04,05,56,6.40
2019,02,04,05,57,12.90
2019,02,04,05,58,12.90
2019,02,04,05,59,11.30
2019,02,04,06,00,9.60
2019,02,04,06,01,8.10
2019,02,04,06,02,8.10
2019,02,04,06,03,11.30
2019,02,04,06,04,12.90
2019,02,04,06,05,6.40
2019,02,04,06,06,4.80
2019,02,04,06,07,12.90
2019,02,04,06,08,9.60
2019,02,04,06,09,16.10
2019,02,04,06,10,14.50
2019,02,04,06,11,14.50
2019,02,04,06,12,12.90
2019,02,04,06,13,14.50
2019,02,04,06,14,14.50
2019,02,04,06,15,14.50
2019,02,04,06,16,14.50
2019,02,04,06,17,8.10
2019,02,04,06,18,8.10
2019,02,04,06,19,9.60
2019,02,04,06,20,3.20
2019,02,04,06,21,8.10
2019,02,04,06,22,8.10
2019,02,04,06,23,6.40
2019,02,04,06,24,4.80
2019,02,04,06,25,9.60
2019,02,04,06,26,11.30
2019,02,04,06,27,11.30
2019,02,04,06,28,8.10
2019,02,04,06,29,8.10
2019,02,04,06,30,12.90
2019,02,04,06,31,8.10
2019,02,04,06,32,11.30
2019,02,04,06,33,12.90
2019,02,04,06,34,8.10
2019,02,04,06,35,6.40
2019,02,04,06,36,8.10
2019,02,04,06,37,6.40
2019,02,04,06,38,8.10
2019,02,04,06,39,8.10
2019,02,04,06,40,6.40
2019,02,04,06,41,11.30
2019,02,04,06,42,8.10
2019,02,04,06,43,4.80
2019,02,04,06,44,6.40
2019,02,04,06,45,4.80
2019,02,04,06,46,4.80
2019,02,04,06,47,4.80
2019,02,04,06,48,6.40
2019,02,04,06,49,6.40
2019,02,04,06,50,6.40
2019,02,04,06,51,4.80
2019,02,04,06,52,9.60
2019,02,04,06,53,8.10
2019,02,04,06,54,3.20
2019,02,04,06,55,1.60
2019,02,04,06,56,3.20
2019,02,04,06,57,3.20
2019,02,04,06,58,11.30
2019,02,04,06,59,11.30
2019,02,04,07,00,11.30
2019,02,04,07,01,6.40
2019,02,04,07,02,6.40
2019,02,04,07,03,4.80
2019,02,04,07,04,4.80
2019,02,04,07,05,3.20
2019,02,04,07,06,4.80
2019,02,04,07,07,8.10
2019,02,04,07,08,8.10
2019,02,04,07,09,1.60
2019,02,04,07,10,4.80
2019,02,04,07,11,4.80
2019,02,04,07,12,3.20
2019,02,04,07,13,1.60
2019,02,04,07,14,3.20
2019,02,04,07,15,1.60
2019,02,04,07,16,1.60
2019,02,04,07,20,4.80
2019,02,04,07,21,4.80
2019,02,04,07,22,4.80
2019,02,04,07,23,4.80
2019,02,04,07,24,4.80
2019,02,04,07,25,8.10
2019,02,04,07,26,3.20
2019,02,04,07,27,4.80
2019,02,04,07,28,6.40
2019,02,04,07,29,3.20
2019,02,04,07,30,6.40
2019,02,04,07,31,6.40
2019,02,04,07,32,4.80
2019,02,04,07,33,8.10
2019,02,04,07,34,1.60
2019,02,04,07,35,4.80
2019,02,04,07,36,4.80
2019,02,04,07,37,6.40
2019,02,04,07,38,6.40
2019,02,04,07,39,6.40
2019,02,04,07,40,4.80
2019,02,04,07,41,3.20
2019,02,04,07,42,1.60
2019,02,04,07,50,4.80
2019,02,04,07,51,4.80
2019,02,04,07,52,1.60
2019,02,04,07,53,3.20
2019,02,04,07,54,6.40
2019,02,04,07,55,8.10
2019,02,04,07,56,6.40
2019,02,04,07,57,1.60
2019,02,04,07,58,4.80
2019,02,04,07,59,6.40
2019,02,04,08,00,4.80
2019,02,04,08,01,6.40
2019,02,04,08,02,8.10
2019,02,04,08,03,6.40
2019,02,04,08,04,6.40
2019,02,04,08,05,6.40
2019,02,04,08,06,4.80
2019,02,04,08,07,6.40
2019,02,04,08,08,3.20
2019,02,04,08,09,11.30
2019,02,04,08,10,8.10
2019,02,04,08,11,4.80
2019,02,04,08,12,3.20
2019,02,04,08,13,4.80
2019,02,04,08,14,1.60
2019,02,04,08,15,1.60
2019,02,04,08,16,6.40
2019,02,04,08,17,6.40
2019,02,04,08,18,8.10
2019,02,04,08,19,9.60
2019,02,04,08,20,4.80
2019,02,04,08,21,6.40
2019,02,04,08,22,6.40
2019,02,04,08,23,6.40
2019,02,04,08,24,6.40
2019,02,04,08,25,4.80
2019,02,04,08,26,9.60
2019,02,04,08,27,11.30
2019,02,04,08,28,6.40
2019,02,04,08,29,4.80
2019,02,04,08,30,9.60
2019,02,04,08,31,4.80
2019,02,04,08,32,4.80
2019,02,04,08,33,8.10
2019,02,04,08,34,11.30
2019,02,04,08,35,6.40
2019,02,04,08,36,8.10
2019,02,04,08,37,6.40
2019,02,04,08,38,8.10
2019,02,04,08,39,8.10
2019,02,04,08,40,4.80
2019,02,04,08,41,4.80
2019,02,04,08,42,3.20
2019,02,04,08,43,1.60
2019,02,04,08,44,3.20
2019,02,04,08,45,1.60
2019,02,04,08,46,3.20
2019,02,04,08,47,3.20
2019,02,04,08,48,6.40
2019,02,04,08,49,8.10
2019,02,04,08,50,1.60
2019,02,04,08,51,1.60
2019,02,04,08,52,1.60
2019,02,04,08,53,3.20
2019,02,04,08,54,3.20
2019,02,04,08,55,1.60
2019,02,04,08,56,3.20
2019,02,04,08,57,1.60
2019,02,04,08,58,1.60
2019,02,04,08,59,1.60
2019,02,04,09,00,3.20
2019,02,04,09,01,3.20
2019,02,04,09,02,3.20
2019,02,04,09,03,3.20
2019,02,04,09,04,1.60
2019,02,04,09,05,1.60
2019,02,04,09,06,1.60
2019,02,04,09,07,3.20
2019,02,04,09,08,3.20
2019,02,04,09,09,3.20
2019,02,04,09,10,4.80
2019,02,04,09,11,3.20
2019,02,04,09,12,3.20
2019,02,04,09,13,3.20
2019,02,04,09,14,3.20
2019,02,04,09,15,4.80
2019,02,04,09,16,3.20
2019,02,04,09,17,3.20
2019,02,04,09,18,6.40
2019,02,04,09,19,4.80
2019,02,04,09,20,3.20
2019,02,04,09,21,3.20
2019,02,04,09,22,1.60
2019,02,04,09,23,1.60
2019,02,04,09,24,3.20
2019,02,04,09,25,4.80
2019,02,04,09,26,4.80
2019,02,04,09,27,3.20
2019,02,04,09,28,1.60
2019,02,04,09,29,3.20
2019,02,04,09,30,3.20
2019,02,04,09,31,4.80
2019,02,04,09,32,4.80
2019,02,04,09,33,3.20
2019,02,04,09,34,4.80
2019,02,04,09,35,4.80
2019,02,04,09,36,1.60
2019,02,04,09,37,3.20
2019,02,04,09,38,3.20
2019,02,04,09,39,3.20
2019,02,04,09,40,4.80
2019,02,04,09,41,6.40
2019,02,04,09,42,3.20
2019,02,04,09,43,3.20
2019,02,04,09,44,3.20
2019,02,04,09,45,6.40
2019,02,04,09,46,6.40
2019,02,04,09,47,4.80
2019,02,04,09,48,3.20
2019,02,04,09,49,3.20
2019,02,04,09,50,3.20
2019,02,04,09,51,3.20
2019,02,04,09,52,3.20
2019,02,04,09,53,3.20
2019,02,04,09,54,3.20
2019,02,04,09,55,3.20
2019,02,04,09,57,4.80
2019,02,04,09,58,6.40
2019,02,04,09,59,11.30
2019,02,04,10,00,11.30
2019,02,04,10,01,4.80
2019,02,04,10,02,9.60
2019,02,04,10,03,8.10
2019,02,04,10,04,4.80
2019,02,04,10,05,3.20
2019,02,04,10,06,4.80
2019,02,04,10,07,8.10
2019,02,04,10,08,8.10
2019,02,04,10,09,4.80
2019,02,04,10,10,9.60
2019,02,04,10,11,6.40
2019,02,04,10,12,6.40
2019,02,04,10,13,14.50
2019,02,04,10,14,11.30
2019,02,04,10,15,11.30
2019,02,04,10,16,12.90
2019,02,04,10,17,14.50
2019,02,04,10,18,14.50
2019,02,04,10,19,6.40
2019,02,04,10,20,6.40
2019,02,04,10,21,12.90
2019,02,04,10,22,12.90
2019,02,04,10,23,11.30
2019,02,04,10,24,12.90
2019,02,04,10,25,12.90
2019,02,04,10,26,8.10
2019,02,04,10,27,11.30
2019,02,04,10,28,12.90
2019,02,04,10,29,11.30
2019,02,04,10,30,8.10
2019,02,04,10,31,8.10
2019,02,04,10,32,8.10
2019,02,04,10,33,11.30
2019,02,04,10,34,8.10
2019,02,04,10,35,4.80
2019,02,04,10,36,6.40
2019,02,04,10,37,11.30
2019,02,04,10,38,8.10
2019,02,04,10,39,8.10
2019,02,04,10,40,8.10
2019,02,04,10,41,11.30
2019,02,04,10,42,8.10
2019,02,04,10,43,12.90
2019,02,04,10,44,6.40
2019,02,04,10,45,16.10
2019,02,04,10,46,16.10
2019,02,04,10,47,8.10
2019,02,04,10,48,6.40
2019,02,04,10,49,4.80
2019,02,04,10,50,11.30
2019,02,04,10,51,4.80
2019,02,04,10,52,14.50
2019,02,04,10,53,11.30
2019,02,04,10,54,12.90
2019,02,04,10,55,12.90
2019,02,04,10,56,6.40
2019,02,04,10,57,12.90
2019,02,04,10,58,16.10
2019,02,04,10,59,14.50
2019,02,04,11,00,12.90
2019,02,04,11,01,6.40
2019,02,04,11,02,4.80
2019,02,04,11,03,4.80
2019,02,04,11,04,4.80
2019,02,04,11,05,16.10
2019,02,04,11,06,6.40
2019,02,04,11,07,6.40
2019,02,04,11,08,6.40
2019,02,04,11,09,6.40
2019,02,04,11,10,6.40
2019,02,04,11,11,4.80
2019,02,04,11,12,6.40
2019,02,04,11,13,11.30
2019,02,04,11,14,9.60
2019,02,04,11,15,6.40
2019,02,04,11,16,8.10
2019,02,04,11,17,4.80
2019,02,04,11,18,6.40
2019,02,04,11,19,8.10
2019,02,04,11,20,11.30
2019,02,04,11,21,6.40
2019,02,04,11,22,3.20
2019,02,04,11,23,4.80
2019,02,04,11,24,6.40
2019,02,04,11,25,12.90
2019,02,04,11,26,12.90
2019,02,04,11,27,6.40
2019,02,04,11,28,4.80
2019,02,04,11,29,3.20
2019,02,04,11,30,3.20
2019,02,04,11,31,6.40
2019,02,04,11,32,6.40
2019,02,04,11,33,8.10
2019,02,04,11,34,4.80
2019,02,04,11,35,3.20
2019,02,04,11,36,4.80
2019,02,04,11,37,3.20
2019,02,04,11,38,3.20
2019,02,04,11,39,4.80
2019,02,04,11,40,4.80
2019,02,04,11,41,1.60
2019,02,04,11,42,6.40
2019,02,04,11,43,3.20
2019,02,04,11,44,3.20
2019,02,04,11,45,6.40
2019,02,04,11,46,4.80
2019,02,04,11,47,3.20
2019,02,04,11,48,4.80
2019,02,04,11,49,3.20
2019,02,04,11,50,3.20
2019,02,04,11,51,8.10
2019,02,04,11,52,6.40
2019,02,04,11,53,4.80
2019,02,04,11,54,8.10
2019,02,04,11,55,6.40
2019,02,04,11,56,11.30
2019,02,04,11,57,6.40
2019,02,04,11,58,6.40
2019,02,04,11,59,4.80
2019,02,04,12,00,6.40
2019,02,04,12,01,3.20
2019,02,04,12,08,4.80
2019,02,04,12,09,3.20
2019,02,04,12,10,3.20
2019,02,04,12,11,4.80
2019,02,04,12,12,3.20
2019,02,04,12,16,4.80
2019,02,04,12,17,6.40
2019,02,04,12,18,1.60
2019,02,04,12,19,6.40
2019,02,04,12,20,6.40
2019,02,04,12,21,6.40
2019,02,04,12,22,6.40
2019,02,04,12,23,6.40
2019,02,04,12,24,8.10
2019,02,04,12,25,3.20
2019,02,04,12,26,4.80
2019,02,04,12,27,3.20
2019,02,04,12,28,6.40
2019,02,04,12,29,4.80
2019,02,04,12,30,6.40
2019,02,04,12,31,8.10
2019,02,04,12,32,4.80
2019,02,04,12,33,4.80
2019,02,04,12,34,3.20
2019,02,04,12,35,4.80
2019,02,04,12,36,4.80
2019,02,04,12,37,1.60
2019,02,04,12,38,6.40
2019,02,04,12,39,8.10
2019,02,04,12,40,14.50
2019,02,04,12,41,4.80
2019,02,04,12,42,6.40
2019,02,04,12,43,11.30
2019,02,04,12,44,12.90
2019,02,04,12,45,8.10
2019,02,04,12,46,11.30
2019,02,04,12,47,11.30
2019,02,04,12,48,11.30
2019,02,04,12,49,4.80
2019,02,04,12,50,6.40
2019,02,04,12,51,3.20
2019,02,04,12,52,3.20
2019,02,04,12,53,4.80
2019,02,04,12,54,8.10
2019,02,04,12,55,11.30
2019,02,04,12,56,4.80
2019,02,04,12,57,8.10
2019,02,04,12,58,3.20
2019,02,04,12,59,8.10
2019,02,04,13,00,8.10
2019,02,04,13,01,6.40
2019,02,04,13,02,11.30
2019,02,04,13,03,11.30
2019,02,04,13,04,9.60
2019,02,04,13,05,11.30
2019,02,04,13,06,11.30
2019,02,04,13,07,8.10
2019,02,04,13,08,12.90
2019,02,04,13,09,8.10
2019,02,04,13,10,4.80
2019,02,04,13,11,4.80
2019,02,04,13,12,6.40
2019,02,04,13,13,12.90
2019,02,04,13,14,1.60
2019,02,04,13,15,14.50
2019,02,04,13,16,14.50
2019,02,04,13,17,12.90
2019,02,04,13,18,4.80
2019,02,04,13,19,6.40
2019,02,04,13,20,9.60
2019,02,04,13,21,11.30
2019,02,04,13,22,8.10
2019,02,04,13,23,11.30
2019,02,04,13,24,6.40
2019,02,04,13,25,4.80
2019,02,04,13,26,9.60
2019,02,04,13,27,11.30
2019,02,04,13,28,12.90
2019,02,04,13,29,14.50
2019,02,04,13,30,8.10
2019,02,04,13,31,6.40
2019,02,04,13,32,11.30
2019,02,04,13,33,12.90
2019,02,04,13,34,12.90
2019,02,04,13,35,12.90
2019,02,04,13,36,8.10
2019,02,04,13,37,11.30
2019,02,04,13,38,8.10
2019,02,04,13,39,8.10
2019,02,04,13,40,11.30
2019,02,04,13,41,6.40
2019,02,04,13,42,11.30
2019,02,04,13,43,4.80
2019,02,04,13,44,11.30
2019,02,04,13,45,4.80
2019,02,04,13,46,6.40
2019,02,04,13,47,9.60
2019,02,04,13,48,6.40
2019,02,04,13,49,4.80
2019,02,04,13,50,6.40
2019,02,04,13,51,6.40
2019,02,04,13,52,6.40
2019,02,04,13,53,4.80
2019,02,04,13,54,6.40
2019,02,04,13,55,8.10
2019,02,04,13,56,9.60
2019,02,04,13,57,6.40
2019,02,04,13,58,3.20
2019,02,04,13,59,8.10
2019,02,04,14,00,6.40
2019,02,04,14,01,11.30
2019,02,04,14,02,6.40
2019,02,04,14,03,11.30
2019,02,04,14,04,14.50
2019,02,04,14,05,6.40
2019,02,04,14,06,8.10
2019,02,04,14,07,4.80
2019,02,04,14,08,8.10
2019,02,04,14,09,6.40
2019,02,04,14,10,3.20
2019,02,04,14,11,6.40
2019,02,04,14,12,8.10
2019,02,04,14,13,1.60
2019,02,04,14,14,3.20
2019,02,04,14,15,3.20
2019,02,04,14,16,4.80
2019,02,04,14,17,4.80
2019,02,04,14,18,12.90
2019,02,04,14,19,14.50
2019,02,04,14,20,14.50
2019,02,04,14,21,12.90
2019,02,04,14,22,11.30
2019,02,04,14,23,12.90
2019,02,04,14,24,6.40
2019,02,04,14,25,1.60
2019,02,04,14,26,6.40
2019,02,04,14,27,4.80
2019,02,04,14,28,4.80
2019,02,04,14,29,6.40
2019,02,04,14,30,3.20
2019,02,04,14,31,6.40
2019,02,04,14,32,8.10
2019,02,04,14,33,6.40
2019,02,04,14,34,11.30
2019,02,04,14,35,9.60
2019,02,04,14,36,8.10
2019,02,04,14,37,8.10
2019,02,04,14,38,8.10
2019,02,04,14,39,11.30
2019,02,04,14,40,3.20
2019,02,04,14,41,4.80
2019,02,04,14,42,8.10
2019,02,04,14,43,4.80
2019,02,04,14,44,6.40
2019,02,04,14,45,8.10
2019,02,04,14,46,6.40
2019,02,04,14,47,6.40
2019,02,04,14,48,6.40
2019,02,04,14,49,3.20
2019,02,04,14,50,8.10
2019,02,04,14,51,11.30
2019,02,04,14,52,12.90
2019,02,04,14,53,11.30
2019,02,04,14,54,8.10
2019,02,04,14,55,11.30
2019,02,04,14,56,6.40
2019,02,04,14,57,8.10
2019,02,04,14,58,4.80
2019,02,04,14,59,4.80
2019,02,04,15,00,6.40
2019,02,04,15,01,6.40
2019,02,04,15,02,8.10
2019,02,04,15,03,8.10
2019,02,04,15,04,8.10
2019,02,04,15,05,8.10
2019,02,04,15,06,11.30
2019,02,04,15,07,8.10
2019,02,04,15,08,3.20
2019,02,04,15,09,8.10
2019,02,04,15,10,6.40
2019,02,04,15,11,4.80
2019,02,04,15,12,4.80
2019,02,04,15,13,4.80
2019,02,04,15,14,4.80
2019,02,04,15,15,4.80
2019,02,04,15,16,6.40
2019,02,04,15,17,8.10
2019,02,04,15,18,8.10
2019,02,04,15,19,3.20
2019,02,04,15,20,4.80
2019,02,04,15,21,6.40
2019,02,04,15,22,6.40
2019,02,04,15,23,8.10
2019,02,04,15,24,8.10
2019,02,04,15,25,6.40
2019,02,04,15,26,11.30
2019,02,04,15,27,11.30
2019,02,04,15,28,11.30
2019,02,04,15,29,8.10
2019,02,04,15,30,8.10
2019,02,04,15,32,8.10
2019,02,04,15,33,9.60
2019,02,04,15,34,4.80
2019,02,04,15,35,3.20
2019,02,04,15,36,3.20
2019,02,04,15,37,4.80
2019,02,04,15,38,8.10
2019,02,04,15,39,9.60
2019,02,04,15,40,4.80
2019,02,04,15,41,6.40
2019,02,04,15,42,3.20
2019,02,04,15,43,1.60
2019,02,04,15,44,4.80
2019,02,04,15,45,6.40
2019,02,04,15,46,8.10
2019,02,04,15,47,6.40
2019,02,04,15,48,11.30
2019,02,04,15,49,11.30
2019,02,04,15,50,6.40
2019,02,04,15,51,6.40
2019,02,04,15,52,6.40
2019,02,04,15,53,8.10
2019,02,04,15,54,3.20
2019,02,04,15,55,1.60
2019,02,04,15,56,3.20
2019,02,04,15,57,3.20
2019,02,04,15,58,11.30
2019,02,04,15,59,4.80
2019,02,04,16,00,4.80
2019,02,04,16,01,6.40
2019,02,04,16,02,4.80
2019,02,04,16,03,4.80
2019,02,04,16,04,6.40
2019,02,04,16,05,3.20
2019,02,04,16,06,3.20
2019,02,04,16,07,3.20
2019,02,04,16,08,3.20
2019,02,04,16,09,11.30
2019,02,04,16,10,4.80
2019,02,04,16,11,4.80
2019,02,04,16,12,3.20
2019,02,04,16,13,4.80
2019,02,04,16,14,3.20
2019,02,04,16,15,6.40
2019,02,04,16,16,3.20
2019,02,04,16,17,4.80
2019,02,04,16,18,8.10
2019,02,04,16,19,6.40
2019,02,04,16,20,6.40
2019,02,04,16,21,3.20
2019,02,04,16,22,4.80
2019,02,04,16,23,4.80
2019,02,04,16,24,4.80
2019,02,04,16,25,8.10
2019,02,04,16,26,4.80
2019,02,04,16,27,4.80
2019,02,04,16,28,4.80
2019,02,04,16,29,6.40
2019,02,04,16,30,8.10
2019,02,04,16,31,4.80
2019,02,04,16,32,4.80
2019,02,04,16,33,3.20
2019,02,04,16,34,4.80
2019,02,04,16,35,6.40
2019,02,04,16,36,4.80
2019,02,04,16,37,3.20
2019,02,04,16,38,1.60
2019,02,04,16,39,4.80
2019,02,04,16,40,4.80
2019,02,04,16,41,6.40
2019,02,04,16,42,11.30
2019,02,04,16,43,4.80
2019,02,04,16,44,4.80
2019,02,04,16,45,4.80
2019,02,04,16,46,4.80
2019,02,04,16,47,4.80
2019,02,04,16,48,1.60
2019,02,04,16,49,4.80
2019,02,04,16,50,4.80
2019,02,04,16,51,3.20
2019,02,04,16,52,4.80
2019,02,04,16,53,1.60
2019,02,04,16,54,4.80
2019,02,04,16,55,1.60
2019,02,04,16,56,4.80
2019,02,04,16,57,4.80
2019,02,04,16,58,1.60
2019,02,04,16,59,4.80
2019,02,04,17,00,1.60
2019,02,04,17,01,3.20
2019,02,04,17,02,3.20
2019,02,04,17,03,4.80
2019,02,04,17,04,4.80
2019,02,04,17,05,4.80
2019,02,04,17,06,6.40
2019,02,04,17,07,3.20
2019,02,04,17,08,3.20
2019,02,04,17,09,3.20
2019,02,04,17,10,3.20
2019,02,04,17,11,3.20
2019,02,04,17,12,4.80
2019,02,04,17,13,6.40
2019,02,04,17,14,3.20
2019,02,04,17,15,3.20
2019,02,04,17,16,6.40
2019,02,04,17,17,4.80
2019,02,04,17,18,4.80
2019,02,04,17,19,4.80
2019,02,04,17,20,3.20
2019,02,04,17,21,4.80
2019,02,04,17,22,4.80
2019,02,04,17,23,4.80
2019,02,04,17,24,3.20
2019,02,04,17,25,4.80
2019,02,04,17,26,3.20
2019,02,04,17,27,4.80
2019,02,04,17,28,4.80
2019,02,04,17,29,4.80
2019,02,04,17,30,3.20
2019,02,04,17,31,4.80
2019,02,04,17,32,4.80
2019,02,04,17,33,6.40
2019,02,04,17,34,3.20
2019,02,04,17,35,4.80
2019,02,04,17,36,4.80
2019,02,04,17,37,4.80
2019,02,04,17,38,3.20
2019,02,04,17,39,4.80
2019,02,04,17,40,4.80
2019,02,04,17,41,4.80
2019,02,04,17,42,4.80
2019,02,04,17,43,4.80
2019,02,04,17,44,4.80
2019,02,04,17,45,6.40
2019,02,04,17,46,6.40
2019,02,04,17,47,3.20
2019,02,04,17,48,4.80
2019,02,04,17,49,4.80
2019,02,04,17,50,4.80
2019,02,04,17,51,4.80
2019,02,04,17,52,4.80
2019,02,04,17,53,4.80
2019,02,04,17,54,4.80
2019,02,04,17,55,6.40
2019,02,04,17,56,4.80
2019,02,04,17,57,6.40
2019,02,04,17,58,4.80
2019,02,04,17,59,6.40
2019,02,04,18,00,4.80
2019,02,04,18,01,6.40
2019,02,04,18,02,4.80
2019,02,04,18,03,6.40
2019,02,04,18,04,6.40
2019,02,04,18,05,6.40
2019,02,04,18,06,6.40
2019,02,04,18,07,6.40
2019,02,04,18,08,4.80
2019,02,04,18,09,6.40
2019,02,04,18,10,3.20
2019,02,04,18,11,4.80
2019,02,04,18,12,4.80
2019,02,04,18,13,6.40
2019,02,04,18,14,6.40
2019,02,04,18,15,6.40
2019,02,04,18,16,3.20
2019,02,04,18,17,4.80
2019,02,04,18,18,4.80
2019,02,04,18,19,4.80
2019,02,04,18,20,4.80
2019,02,04,18,21,4.80
2019,02,04,18,22,6.40
2019,02,04,18,23,4.80
2019,02,04,18,24,4.80
2019,02,04,18,25,4.80
2019,02,04,18,26,4.80
2019,02,04,18,27,4.80
2019,02,04,18,28,4.80
2019,02,04,18,29,4.80
2019,02,04,18,30,4.80
2019,02,04,18,31,4.80
2019,02,04,18,32,4.80
2019,02,04,18,33,4.80
2019,02,04,18,34,4.80
2019,02,04,18,35,4.80
2019,02,04,18,36,6.40
2019,02,04,18,37,4.80
2019,02,04,18,38,6.40
2019,02,04,18,39,6.40
2019,02,04,18,40,6.40
2019,02,04,18,41,6.40
2019,02,04,18,42,6.40
2019,02,04,18,43,6.40
2019,02,04,18,44,4.80
2019,02,04,18,45,4.80
2019,02,04,18,46,4.80
2019,02,04,18,47,6.40
2019,02,04,18,48,4.80
2019,02,04,18,49,4.80
2019,02,04,18,50,4.80
2019,02,04,18,51,4.80
2019,02,04,18,52,4.80
2019,02,04,18,53,4.80
2019,02,04,18,54,4.80
2019,02,04,18,55,4.80
2019,02,04,18,56,6.40
2019,02,04,18,57,6.40
2019,02,04,18,58,4.80
2019,02,04,18,59,4.80
2019,02,04,19,00,4.80
2019,02,04,19,01,4.80
2019,02,04,19,02,4.80
2019,02,04,19,03,4.80
2019,02,04,19,04,4.80
2019,02,04,19,05,6.40
2019,02,04,19,06,6.40